Flag for Switzerland Weather past 2 weeks in Sion, Valais, Switzerland

Now
31 °F

Snow. Low clouds.


Feels Like: 31 °F
Forecast: 16 / 36 °F
Wind: 2 mph from Northeast

Location: Sion

Current Time: Feb 1, 2015 at 11:11:12 AM

Latest Report: Feb 1, 2015 at 10:00 AM


Visibility: 6 mi

Pressure: 29.38 "Hg

Humidity: 93%

Dew point: 29 °F

Location of SionLocation

Historic Weather in Sion — Graph

°F

Sion temperature yesterday

Maximum temperature yesterday: 34 °F (at 2:00 PM)
Minimum temperature yesterday: 23 °F (at 8:00 AM)
Average temperature yesterday: 30 °F

Past Weeks' High & Low Weather Summary

 TemperatureHumidityPressure
High45 °F (Jan 20, 2:00 PM)100% (Jan 31, 8:00 AM)30.45 "Hg (Jan 31, 8:00 AM)
Low23 °F (Jan 31, 8:00 AM)44% (Jan 25, 3:00 PM)29.03 "Hg (Jan 30, 3:00 AM)
Average33 °F78%29.91 "Hg
* Reported Jan 17 9:00 AM — Feb 1 9:00 AM, Sion, Weather by CustomWeather, © 2014

Note: Actual official high and low records may vary slightly from our data, if they occured in-between our weather recording intervals... More about our weather records

Advertising

Sion weather history for previous 24 hours

 ConditionsComfort  
Time TempWeatherWind HumidityBarometerVisibility
9:00 AM
Feb 1
30 °FChilly.1 mph96%29.38 "HgN/A
8:00 AM30 °FChilly.1 mph96%29.35 "HgN/A
7:00 AM30 °FOvercast.1 mph95%29.35 "Hg9 mi
6:00 AM30 °FChilly.1 mph94%29.32 "HgN/A
5:00 AM30 °FChilly.1 mph94%29.32 "HgN/A
4:00 AM30 °FOvercast.1 mph95%29.32 "Hg47 mi
3:00 AM31 °FChilly.3 mph94%29.29 "HgN/A
2:00 AM31 °FChilly.1 mph95%29.32 "HgN/A
1:00 AM30 °FLight snow. Low clouds.1 mph96%29.32 "Hg3 mi
12:00 AM31 °FChilly.2 mph96%29.29 "HgN/A
11:00 PM
Jan 31
30 °FChilly.No wind97%29.29 "HgN/A
10:00 PM31 °FLight snow. Low clouds.1 mph96%29.29 "Hg3 mi
9:00 PM31 °FChilly.1 mph93%29.29 "HgN/A
8:00 PM31 °FChilly.1 mph88%29.26 "HgN/A
7:00 PM32 °FOvercast.1 mph85%29.26 "Hg9 mi
6:00 PM33 °FChilly.2 mph78%29.23 "HgN/A
5:00 PM33 °FChilly.2 mph73%29.21 "HgN/A
4:00 PM34 °FOvercast.1 mph70%29.18 "Hg12 mi
3:00 PM34 °FChilly.6 mph73%29.18 "HgN/A
2:00 PM34 °FChilly.2 mph70%29.18 "HgN/A
1:00 PM32 °FPartly sunny.3 mph77%29.18 "Hg12 mi
12:00 PM31 °FChilly.1 mph78%29.21 "HgN/A
11:00 AM28 °FChilly.2 mph86%29.21 "HgN/A
Weather by CustomWeather, © 2014

See weather overviewHow to use our weather pages